Date String (YYYY-MM-DD hh:mm:ss) UTC,Instrument flags,Ambient pressure (hPa),Sample flow (lpm),Bypass flow (lpm),Sample temperature (°C),Ambient temperature (°C),ASC tube jacket temperature (°C),LED temperature (°C),Box temperature (°C),Sample RH (%),Span deviation,Mass concentration (μg/m³),Mass concentration (μg/m³),Mass concentration (μg/m³)
DateTimeUTC,F1_M11,P_M11,Q1_M11,Q2_M11,T1_M11,T2_M11,T3_M11,T4_M11,T5_M11,U1_M11,ZSPAN_M11,X0_M11,X2_M11,X1_M11
2021-10-11 05:00:00,,0822.2,5.00,0.00,29.6,28.7,00.0,38.8,31.4,09.2,0000.0,0006.17,0002.52,0002.26
2021-10-11 05:01:00,,0822.2,5.00,0.00,29.6,28.7,00.0,38.8,31.4,09.2,0000.0,0006.15,0002.52,0002.27
2021-10-11 05:02:00,,0822.2,5.00,0.00,29.6,28.7,00.0,38.8,31.4,09.3,0000.0,0005.45,0002.51,0002.27
2021-10-11 05:03:00,,0822.2,5.00,0.00,29.6,28.7,00.0,38.8,31.4,09.4,0000.0,0004.40,0002.47,0002.24
2021-10-11 05:04:00,,0822.2,4.99,0.00,29.6,28.7,00.0,38.8,31.4,09.4,0000.0,0004.47,0002.48,0002.24
2021-10-11 05:05:00,,0822.2,5.01,0.00,29.6,28.7,00.0,38.8,31.4,09.4,0000.0,0004.46,0002.47,0002.24
2021-10-11 05:06:00,,0822.2,5.00,0.00,29.6,28.7,00.0,38.8,31.4,09.5,0000.0,0004.44,0002.45,0002.23
2021-10-11 05:07:00,,0822.2,5.01,0.00,29.6,28.7,00.0,38.8,31.4,09.5,0000.0,0004.42,0002.45,0002.22
2021-10-11 05:08:00,,0822.2,5.00,0.00,29.6,28.7,00.0,38.8,31.4,09.5,0000.0,0004.52,0002.46,0002.22
2021-10-11 05:09:00,,0822.2,4.99,0.00,29.6,28.7,00.0,38.8,31.4,09.5,0000.0,0004.49,0002.45,0002.21
2021-10-11 05:10:00,,0822.2,5.00,0.00,29.6,28.7,00.0,38.8,31.4,09.4,0000.0,0003.85,0002.44,0002.20
2021-10-11 05:11:00,,0822.2,4.99,0.00,29.6,28.7,00.0,38.8,31.4,09.4,0000.0,0003.19,0002.43,0002.19
2021-10-11 05:12:00,,0822.2,5.00,0.00,29.6,28.7,00.0,38.8,31.4,09.3,0000.0,0003.19,0002.42,0002.18
2021-10-11 05:13:00,,0822.2,5.01,0.00,29.6,28.7,00.0,38.8,31.4,09.3,0000.0,0003.19,0002.42,0002.19
2021-10-11 05:14:00,,0822.2,4.98,0.00,29.6,28.7,00.0,38.8,31.4,09.2,0000.0,0003.24,0002.44,0002.19
2021-10-11 05:15:00,,0822.2,4.99,0.00,29.6,28.7,00.0,38.8,31.4,09.2,0000.0,0003.16,0002.45,0002.21
2021-10-11 05:16:00,,0822.2,5.00,0.00,29.6,28.8,00.0,38.8,31.4,09.2,0000.0,0003.16,0002.44,0002.19
2021-10-11 05:17:00,,0822.2,5.01,0.00,29.6,28.8,00.0,38.8,31.4,09.2,0000.0,0003.17,0002.44,0002.18
2021-10-11 05:18:00,,0822.2,5.00,0.00,29.7,28.7,00.0,38.8,31.4,09.2,0000.0,0003.18,0002.45,0002.19
2021-10-11 05:19:00,,0822.2,5.00,0.00,29.7,28.7,00.0,38.8,31.4,09.2,0000.0,0003.06,0002.43,0002.19
2021-10-11 05:20:00,,0822.2,4.99,0.00,29.6,28.8,00.0,38.8,31.4,09.2,0000.0,0003.12,0002.45,0002.19
2021-10-11 05:21:00,,0822.2,4.99,0.00,29.7,28.8,00.0,38.8,31.4,09.2,0000.0,0003.12,0002.44,0002.19
2021-10-11 05:22:00,,0822.2,5.00,0.00,29.7,28.8,00.0,38.8,31.4,09.1,0000.0,0003.02,0002.42,0002.20
2021-10-11 05:23:00,,0822.2,5.00,0.00,29.7,28.8,00.0,38.8,31.4,09.1,0000.0,0003.01,0002.42,0002.19
2021-10-11 05:24:00,,0822.2,5.01,0.00,29.7,28.8,00.0,38.8,31.4,09.2,0000.0,0003.02,0002.42,0002.18
2021-10-11 05:25:00,,0822.2,4.99,0.00,29.7,28.8,00.0,38.8,31.4,09.1,0000.0,0003.10,0002.44,0002.18
2021-10-11 05:26:00,,0822.2,5.00,0.00,29.7,28.8,00.0,38.8,31.4,09.1,0000.0,0003.03,0002.40,0002.16
2021-10-11 05:27:00,,0822.3,4.99,0.00,29.7,28.8,00.0,38.8,31.4,09.1,0000.0,0003.04,0002.40,0002.15
2021-10-11 05:28:00,,0822.3,5.01,0.00,29.7,28.8,00.0,38.8,31.4,09.1,0000.0,0003.03,0002.40,0002.15
2021-10-11 05:29:00,,0822.3,5.00,0.00,29.7,28.8,00.0,38.8,31.4,09.1,0000.0,0002.99,0002.39,0002.14
2021-10-11 05:30:00,,0822.3,4.99,0.00,29.7,28.8,00.0,38.8,31.4,09.1,0000.0,0003.07,0002.39,0002.12
2021-10-11 05:31:00,,0822.2,5.00,0.00,29.7,28.8,00.0,38.8,31.4,09.1,0000.0,0003.05,0002.37,0002.12
2021-10-11 05:32:00,,0822.2,5.00,0.00,29.7,28.8,00.0,38.8,31.4,09.3,0000.0,0003.00,0002.36,0002.12
2021-10-11 05:33:00,,0822.2,5.00,0.00,29.7,28.8,00.0,38.8,31.4,09.5,0000.0,0003.04,0002.37,0002.11
2021-10-11 05:34:00,,0822.2,4.99,0.00,29.7,28.8,00.0,38.8,31.4,09.5,0000.0,0003.04,0002.37,0002.11
2021-10-11 05:35:00,,0822.2,5.01,0.00,29.7,28.8,00.0,38.8,31.5,09.6,0000.0,0003.08,0002.38,0002.12
2021-10-11 05:36:00,,0822.2,5.02,0.00,29.7,28.8,00.0,38.8,31.4,09.6,0000.0,0003.07,0002.39,0002.13
2021-10-11 05:37:00,,0822.2,5.00,0.00,29.7,28.8,00.0,38.8,31.4,09.5,0000.0,0003.25,0002.43,0002.14
2021-10-11 05:38:00,,0822.2,4.99,0.00,29.7,28.8,00.0,38.8,31.4,09.5,0000.0,0004.13,0002.45,0002.16
2021-10-11 05:39:00,,0822.2,5.00,0.00,29.7,28.8,00.0,38.8,31.4,09.5,0000.0,0004.31,0002.49,0002.18
2021-10-11 05:40:00,,0822.2,4.99,0.00,29.7,28.7,00.0,38.8,31.4,09.4,0000.0,0004.32,0002.49,0002.19
2021-10-11 05:41:00,,0822.2,5.01,0.00,29.7,28.7,00.0,38.8,31.4,09.4,0000.0,0004.27,0002.50,0002.20
2021-10-11 05:42:00,,0822.2,4.99,0.00,29.7,28.7,00.0,38.8,31.4,09.3,0000.0,0004.25,0002.50,0002.19
2021-10-11 05:43:00,,0822.2,5.01,0.00,29.7,28.7,00.0,38.8,31.4,09.3,0000.0,0004.39,0002.54,0002.19
2021-10-11 05:44:00,,0822.2,4.99,0.00,29.7,28.7,00.0,38.8,31.4,09.2,0000.0,0004.44,0002.52,0002.18
2021-10-11 05:45:00,,0822.2,5.01,0.00,29.7,28.7,00.0,38.8,31.4,09.3,0000.0,0004.45,0002.52,0002.18
2021-10-11 05:46:00,,0822.2,4.99,0.00,29.7,28.7,00.0,38.8,31.4,09.4,0000.0,0004.43,0002.51,0002.18
2021-10-11 05:47:00,,0822.2,5.00,0.00,29.7,28.7,00.0,38.8,31.4,09.4,0000.0,0004.50,0002.51,0002.17
2021-10-11 05:48:00,,0822.2,5.00,0.00,29.7,28.8,00.0,38.8,31.4,09.3,0000.0,0004.46,0002.48,0002.15
2021-10-11 05:49:00,,0822.2,5.00,0.00,29.7,28.8,00.0,38.8,31.4,09.5,0000.0,0003.46,0002.45,0002.15
2021-10-11 05:50:00,,0822.3,4.99,0.00,29.7,28.7,00.0,38.8,31.4,09.6,0000.0,0004.16,0002.45,0002.14
2021-10-11 05:51:00,,0822.2,5.01,0.00,29.7,28.7,00.0,38.8,31.4,09.7,0000.0,0004.94,0002.46,0002.15
2021-10-11 05:52:00,,0822.3,4.99,0.00,29.7,28.7,00.0,38.8,31.4,09.7,0000.0,0005.05,0002.50,0002.17
2021-10-11 05:53:00,,0822.2,5.00,0.00,29.7,28.7,00.0,38.8,31.4,09.7,0000.0,0005.13,0002.55,0002.20
2021-10-11 05:54:00,,0822.2,4.99,0.00,29.7,28.7,00.0,38.8,31.4,09.7,0000.0,0005.07,0002.55,0002.22
2021-10-11 05:55:00,,0822.2,5.01,0.00,29.7,28.7,00.0,38.8,31.4,09.7,0000.0,0005.02,0002.57,0002.25
2021-10-11 05:56:00,,0822.2,5.00,0.00,29.7,28.7,00.0,38.8,31.4,09.7,0000.0,0005.12,0002.61,0002.26
2021-10-11 05:57:00,,0822.2,5.00,0.00,29.7,28.7,00.0,38.8,31.4,09.6,0000.0,0005.18,0002.64,0002.27
2021-10-11 05:58:00,,0822.2,4.99,0.00,29.7,28.7,00.0,38.8,31.4,09.6,0000.0,0005.15,0002.64,0002.29
2021-10-11 05:59:00,,0822.1,5.01,0.00,29.7,28.7,00.0,38.8,31.4,09.6,0000.0,0005.15,0002.65,0002.31
